Location: Bonningues
(50.7927°N, 2.0150°E)
Time: 10:31:45
(UTC+00:00)

Cosmos 2322 - Pass Details

Date: 08 August 2020
Orbit: 842 x 853 km, 71.0° (Epoch: 20 September)

Event Time Altitude Azimuth Distance (km) Brightness Sun altitude
Rises 23:19:54 0° 329° (NNW) 3,416 8.0 -22.9°
Reaches altitude 10° 23:22:22 10° 329° (NNW) 2,475 7.1 -23.0°
Maximum altitude 23:28:03 85° 243° (WSW) 853 3.6 -23.1°
Enters shadow 23:29:24 54° 159° (SSE) 1,016 3.7 -23.1°
